FW9852 Weather Reports


time (UTC)temp
F
wind
direction
speed
knots
gust
knots
rain 1hr
in
rain 24hr
in
rain mn
in
humidity
%
barometer
mb
20260506201557 42 171 0.9 4.3 0.00 0.00 0.00 77 1012.4
20260506200058 43 0 0.0 3.5 0.00 0.00 0.00 76 1012.3
20260506194556 43 162 1.7 7.0 0.00 0.00 0.00 76 1012.4
20260506193056 43 200 0.9 6.1 0.00 0.00 0.00 75 1012.4
20260506191604 44 130 1.7 5.2 0.00 0.00 0.00 74 1012.6
20260506190058 44 135 1.7 6.1 0.00 0.00 0.00 72 1012.5
20260506184559 44 91 3.5 8.7 0.00 0.00 0.00 70 1012.1
20260506183103 45 152 2.6 7.8 0.00 0.00 0.00 67 1012.0
20260506181601 47 150 1.7 7.0 0.00 0.00 0.00 63 1012.1
20260506180058 48 150 3.5 10.4 0.00 0.00 0.00 59 1012.0
20260506174608 50 193 0.9 9.6 0.00 0.00 0.00 55 1012.0
20260506173059 51 94 1.7 6.1 0.00 0.00 0.00 50 1011.9
20260506171606 52 132 2.6 7.0 0.00 0.00 0.00 46 1011.8
20260506170104 52 100 4.3 9.6 0.00 0.00 0.00 45 1011.5
20260506164600 53 127 1.7 7.0 0.00 0.00 0.00 44 1011.5
20260506163131 53 0 0.0 2.6 0.00 0.00 0.00 41 1011.4
20260506161557 53 94 0.0 3.5 0.00 0.00 0.00 41 1011.4
20260506154556 54 58 1.7 3.5 0.00 0.00 0.00 39 1011.0
20260506153134 54 101 1.7 5.2 0.00 0.00 0.00 35 1011.0
20260506151605 54 114 1.7 7.0 0.00 0.00 0.00 35 1010.9
20260506150059 54 101 2.6 7.8 0.00 0.00 0.00 32 1011.4
20260506144604 55 104 2.6 7.0 0.00 0.00 0.00 31 1011.6
20260506143057 55 113 1.7 7.0 0.00 0.00 0.00 38 1012.1
20260506141601 55 47 2.6 6.1 0.00 0.00 0.00 36 1012.3
20260506134610 56 100 2.6 7.0 0.00 0.00 0.00 36 1012.5
20260506133109 56 47 3.5 8.7 0.00 0.00 0.00 38 1012.6
20260506131608 56 35 2.6 7.8 0.00 0.00 0.00 40 1012.6
20260506130110 57 126 3.5 7.8 0.00 0.00 0.00 38 1012.6
20260506124610 56 104 0.0 3.5 0.00 0.00 0.00 39 1012.8
20260506123114 57 68 2.6 7.0 0.00 0.00 0.00 40 1012.7
20260506121611 56 36 2.6 10.4 0.00 0.00 0.00 42 1012.5
20260506120058 56 5 1.7 7.0 0.00 0.00 0.00 44 1012.6
20260506114557 56 114 2.6 7.8 0.00 0.00 0.00 41 1012.5
20260506113054 56 205 0.0 7.0 0.00 0.00 0.00 39 1012.8
20260506111555 56 53 2.6 7.0 0.00 0.00 0.00 43 1012.8
20260506110104 56 29 2.6 7.0 0.00 0.00 0.00 38 1012.8
20260506104606 55 341 0.9 5.2 0.00 0.00 0.00 44 1012.8
20260506103103 53 70 0.9 6.1 0.00 0.00 0.00 45 1013.0
20260506101618 53 355 1.7 7.8 0.00 0.00 0.00 45 1013.2
20260506100058 53 123 2.6 7.0 0.00 0.00 0.00 42 1013.2
20260506094559 52 304 1.7 4.3 0.00 0.00 0.00 44 1013.1
20260506093100 52 142 0.9 7.8 0.00 0.00 0.00 44 1013.3
20260506091556 51 311 1.7 5.2 0.00 0.00 0.00 45 1013.3
20260506090111 52 325 2.6 7.0 0.00 0.00 0.00 48 1013.3
20260506084632 52 329 0.9 5.2 0.00 0.00 0.00 48 1013.3
20260506083058 51 77 1.7 4.3 0.00 0.00 0.00 49 1013.4
20260506081611 50 271 2.6 7.0 0.00 0.00 0.00 51 1013.4
20260506073056 49 98 0.9 5.2 0.00 0.00 0.00 56 1013.2
20260506071559 49 5 2.6 5.2 0.00 0.00 0.00 60 1013.2
20260506061556 48 224 1.7 5.2 0.00 0.00 0.00 60 1012.8
20260506050117 44 20 0.9 2.6 0.00 0.00 0.00 67 1013.0
20260506044554 43 328 0.0 1.7 0.00 0.00 0.00 70 1012.8
20260506043059 40 0 0.0 0.9 0.00 0.00 0.00 75 1012.8
20260506041602 39 275 0.0 1.7 0.00 0.00 0.00 78 1012.6
20260506040057 37 275 0.0 1.7 0.00 0.00 0.00 81 1012.3
20260506034558 36 275 0.0 0.9 0.00 0.00 0.00 85 1012.2
20260506033054 34 0 0.0 0.0 0.00 0.00 0.00 89 1012.1
20260506031556 33 0 0.0 0.0 0.00 0.00 0.00 89 1011.8
20260506030058 33 0 0.0 0.0 0.00 0.00 0.00 88 1011.6
20260506024608 33 0 0.0 0.9 0.00 0.00 0.00 88 1011.5
20260506023108 33 0 0.0 0.0 0.00 0.00 0.00 88 1011.5
20260506021556 33 0 0.0 0.0 0.00 0.00 0.00 86 1011.3
20260506020057 33 0 0.0 0.0 0.00 0.00 0.00 87 1011.1
20260506014557 33 0 0.0 0.0 0.00 0.00 0.00 84 1011.0
20260506013059 34 0 0.0 0.0 0.00 0.00 0.00 84 1010.9
20260506011606 34 0 0.0 0.0 0.00 0.00 0.00 82 1010.9
20260506010055 35 0 0.0 0.0 0.00 0.00 0.00 81 1010.7
20260506004600 36 0 0.0 0.0 0.00 0.00 0.00 79 1010.4
20260506003054 37 0 0.0 0.0 0.00 0.00 0.00 78 1010.3
20260506001559 38 0 0.0 0.0 0.00 0.00 0.00 76 1010.1
20260506000104 39 0 0.0 0.9 0.00 0.00 0.00 76 1010.1
20260505234555 39 0 0.0 0.9 0.00 0.00 0.00 74 1010.1
20260505233058 40 0 0.0 1.7 0.00 0.00 0.00 74 1010.0
20260505231555 40 319 0.0 0.9 0.00 0.00 0.00 74 1010.0
20260505230121 41 0 0.0 2.6 0.00 0.00 0.00 73 1009.9
20260505224556 42 0 0.0 1.7 0.00 0.00 0.00 73 1009.8
20260505223058 43 336 0.0 1.7 0.00 0.00 0.00 70 1009.7
20260505221603 44 309 0.0 3.5 0.00 0.00 0.00 69 1009.7
20260505214604 46 349 1.7 4.3 0.00 0.00 0.00 69 1009.2
20260505213055 46 355 1.7 7.8 0.00 0.00 0.00 69 1009.0
20260505211605 47 326 1.7 5.2 0.00 0.00 0.00 72 1008.9
20260505210107 48 336 1.7 5.2 0.00 0.00 0.00 72 1008.8
20260505204602 48 294 2.6 7.0 0.00 0.00 0.00 71 1008.5
20260505203107 48 291 0.9 6.1 0.00 0.00 0.00 71 1008.3